Location: Cortos
(40.7190°N, 4.5893°W)
Time: 04:21:53
(UTC+00:00)

Atlas Centaur 2 - Pass Details

Date: 05 July 2020
Orbit: 459 x 1310 km, 30.4° (Epoch: 11 August)

Event Time Altitude Azimuth Distance (km) Brightness Sun altitude
Rises 20:24:56 0° 240° (WSW) 3,097 5.5 -5.9°
Reaches altitude 10° 20:27:23 10° 229° (SW) 2,309 4.6 -6.3°
Maximum altitude 20:32:10 30° 169° (S) 1,556 3.2 -7.0°
Drops below altitude 10° 20:37:59 10° 112° (ESE) 2,843 4.3 -7.9°
Enters shadow 20:38:51 - 109° (ESE) 3,124 4.6 -8.0°
